Wind_Speed
73 71 71 69 63 57 53 52 51 46 34 28 27 25 30 30 35 42 44 39 35 37 34 34 32 35 36 36 34 32 26 25 25 27 24 25 28 32 33 41 46 43 42
74 71 64 55 50 51 51 52 50 41 29 26 25 34 39 37 42 38 39 31 30 34 33 33 34 33 32 31 34 31 29 25 28 27 27 25 28 31 35 37 38 47 50
69 61 49 45 45 51 52 46 40 33 25 25 29 34 34 41 45 37 37 32 34 35 35 32 33 33 32 31 30 31 33 25 26 28 27 28 28 30 32 31 33 37 39
58 50 43 41 45 49 47 33 25 21 22 32 34 31 37 42 43 34 27 29 36 34 35 34 36 32 30 30 30 29 30 28 29 29 29 28 29 31 30 30 29 31 34
54 46 41 40 42 36 22 12 13 21 32 36 39 39 35 36 34 23 27 31 33 33 32 32 37 37 36 35 31 29 27 30 26 28 30 31 33 33 31 31 30 30 30
49 44 40 36 34 17 4 9 28 39 43 36 37 40 33 33 28 33 34 28 34 34 34 35 34 31 31 31 31 29 31 28 29 34 34 34 34 32 32 30 29 30 30
43 38 31 29 27 12 10 19 33 47 46 40 38 40 37 33 37 38 30 33 33 31 31 35 37 34 33 34 32 31 33 33 35 36 38 37 36 34 33 33 32 32 31
38 31 26 24 21 13 13 24 42 48 48 47 38 30 33 31 43 37 38 32 37 36 35 31 35 35 32 31 34 38 36 32 32 31 33 34 34 34 31 31 32 31 33
34 28 24 23 21 17 15 31 52 57 55 51 33 53 47 39 47 45 44 40 38 33 40 39 36 32 33 34 34 33 38 36 38 33 32 36 33 33 32 33 32 32 32
29 27 23 22 19 14 20 40 52 58 60 56 30 28 48 45 50 55 48 40 45 39 39 39 34 37 36 33 38 34 37 37 38 32 29 36 38 35 35 33 34 34 35
23 25 21 22 16 14 27 45 52 56 56 59 42 38 40 58 58 56 53 46 42 36 42 40 37 39 34 34 37 36 37 32 33 33 33 34 37 33 35 37 37 40 37
19 23 21 24 17 14 34 50 38 50 58 56 50 43 39 59 57 56 55 46 50 38 37 43 38 41 36 34 32 36 37 39 41 35 34 37 37 38 41 42 40 40 41
20 21 21 21 17 16 39 54 41 46 53 59 54 54 40 57 59 52 60 56 50 46 43 42 45 39 38 39 37 37 39 37 36 38 42 43 35 43 45 42 42 45 47
19 21 22 22 18 20 41 44 43 44 42 50 59 53 48 44 57 55 56 63 61 56 49 49 47 46 45 43 43 46 41 38 39 41 47 38 37 39 44 44 46 43 51
22 19 24 24 20 25 34 44 46 45 43 40 52 57 55 53 51 52 51 56 63 63 52 52 57 57 52 51 46 48 44 42 43 47 45 40 42 38 43 46 48 43 45
21 20 23 27 26 26 31 44 47 48 50 45 51 55 56 58 55 56 55 58 62 64 58 55 49 47 55 50 48 50 52 47 48 49 44 44 45 47 44 44 44 47 44
23 21 18 26 30 27 34 43 44 47 50 47 50 56 57 63 63 59 53 55 60 59 56 59 58 54 46 46 45 47 49 52 51 52 56 54 53 53 51 53 47 48 52
30 26 21 19 27 31 32 47 42 47 47 49 55 55 54 55 54 69 57 56 57 60 62 61 56 53 53 54 49 52 56 59 59 57 60 54 54 57 57 51 52 56 54
35 33 29 25 22 28 36 38 52 51 48 51 52 58 58 58 54 56 59 57 56 57 60 60 61 59 57 57 50 49 53 59 62 59 56 57 56 55 58 61 59 58 61
41 38 37 34 29 27 28 38 46 52 58 51 55 58 61 55 62 58 60 65 54 55 57 60 61 62 64 61 67 64 59 56 58 61 60 59 60 63 64 64 66 66 63
47 46 44 41 38 34 33 35 37 51 57 65 61 64 66 65 64 57 58 63 68 65 56 57 59 64 67 68 67 69 72 72 66 64 65 64 64 63 65 66 63 65 63
51 49 47 47 45 43 41 38 38 42 51 61 73 72 69 69 70 69 66 64 63 61 66 76 63 60 66 66 66 64 63 66 61 65 64 57 61 63 67 67 67 67 67
57 54 52 53 51 50 49 46 45 44 49 55 66 71 79 78 78 75 75 76 72 70 72 71 68 71 71 76 75 75 77 73 71 70 68 71 72 77 74 74 80 78 78
59 57 58 61 61 60 57 55 55 53 53 56 59 63 73 76 86 88 85 81 80 82 77 78 81 80 80 79 79 82 85 85 82 83 82 83 89 84 84 83 85 84 85
64 64 62 63 65 65 65 62 60 59 58 60 61 64 68 72 80 85 87 90 89 88 86 88 87 87 87 83 87 87 87 87 90 88 90 90 94 91 89 89 89 91 90
74 72 68 67 67 69 71 70 68 69 67 65 64 66 69 73 76 79 84 88 86 85 87 89 91 90 94 93 91 93 93 96 98 102 97 97 97 98 100 98 98 98 99
Wind_Direction
300 299 298 296 296 292 289 291 289 281 273 259 242 226 204 204 199 192 200 192 194 207 211 218 223 226 231 229 233 237 237 237 236 236 235 240 232 229 235 235 232 229 230
300 298 297 295 294 292 292 291 285 277 254 237 215 196 192 189 183 180 193 188 190 204 210 218 223 226 229 230 230 230 229 235 237 234 235 244 238 236 239 238 238 239 245
297 295 294 296 295 297 296 290 275 258 238 205 180 184 182 178 181 179 171 183 206 209 212 212 216 220 224 217 223 228 224 226 235 236 238 235 229 227 233 235 241 243 245
293 293 295 296 302 304 303 291 261 220 200 168 166 179 178 177 179 181 185 191 211 214 216 215 212 211 217 223 225 226 228 230 231 235 240 237 231 231 238 238 240 240 241
292 293 294 297 302 307 304 268 185 167 159 162 163 167 174 180 182 180 196 211 209 210 217 211 212 216 218 226 226 227 226 225 228 233 237 238 240 239 237 239 245 246 246
290 292 292 295 298 290 198 183 155 152 154 156 172 172 174 170 180 201 199 218 223 223 216 215 214 215 222 221 224 229 234 232 238 241 239 238 240 238 240 240 241 244 244
285 290 290 290 292 255 220 172 161 155 156 157 165 171 170 178 196 194 205 214 217 220 218 214 215 217 224 230 230 235 226 231 238 231 232 231 232 234 236 240 243 248 249
280 282 284 284 278 246 218 176 167 159 164 157 159 187 166 212 201 201 199 208 214 229 223 219 214 217 218 227 234 240 223 225 221 221 224 226 227 229 233 240 241 242 245
277 269 274 278 270 249 234 184 172 166 169 168 165 188 207 211 202 203 200 206 208 212 216 222 220 224 223 233 231 235 240 224 227 235 237 236 232 234 236 241 246 248 249
276 259 261 271 270 244 214 184 175 178 178 179 164 185 203 199 192 201 200 211 211 210 219 217 223 225 239 237 236 229 239 238 235 238 236 241 236 238 242 243 249 252 250
276 252 255 264 264 229 205 183 179 186 188 185 184 185 196 195 200 207 208 212 211 214 230 226 233 230 228 229 233 230 239 239 246 253 250 247 234 239 239 250 256 252 246
287 248 252 261 254 216 202 187 192 186 192 193 198 197 204 205 196 204 216 218 223 215 226 230 230 226 229 230 229 240 243 241 245 248 243 241 235 234 243 251 250 246 248
297 250 249 253 252 219 197 195 205 192 194 199 205 206 210 207 204 211 216 215 212 219 216 226 227 219 226 229 233 237 240 237 237 244 242 245 246 242 250 249 248 248 248
314 259 255 249 256 223 194 207 208 204 208 204 213 215 212 212 212 215 222 224 221 228 230 228 228 236 234 236 237 236 236 239 239 242 247 246 249 253 251 248 253 252 252
330 284 258 255 250 231 207 209 216 212 208 211 217 213 217 213 215 216 223 228 231 231 232 234 232 236 238 238 238 233 237 241 244 243 243 248 249 254 252 255 251 253 250
315 321 272 262 254 242 214 209 219 217 218 218 220 220 221 220 220 222 228 230 229 229 235 234 232 235 234 236 237 243 243 244 240 240 246 245 247 253 254 252 254 251 246
299 304 308 273 258 254 227 213 217 217 223 230 230 225 225 224 227 226 235 235 235 233 239 234 234 238 230 237 243 246 245 243 243 250 253 257 250 254 255 253 251 253 256
289 290 291 296 272 256 248 222 222 225 227 232 230 227 226 227 232 226 233 235 236 234 237 240 238 239 236 241 249 247 243 244 249 251 258 252 252 255 249 253 253 251 250
282 281 280 279 279 272 257 248 232 227 228 232 235 231 234 234 231 227 230 231 239 241 236 237 239 242 238 237 240 240 246 247 250 244 251 253 254 253 252 254 251 248 253
277 278 276 274 271 269 276 260 244 242 235 232 231 235 233 239 232 233 234 234 232 233 240 245 246 247 246 248 245 248 248 251 253 249 253 253 255 255 252 251 252 253 253
271 274 273 272 270 268 265 271 271 253 246 238 236 236 238 241 240 239 243 241 243 240 237 238 245 248 246 244 247 250 253 255 254 253 261 260 251 254 255 257 259 257 252
271 271 269 269 268 266 266 264 264 266 263 252 244 241 241 242 244 246 243 243 242 240 244 245 239 239 246 242 243 245 247 251 252 252 248 250 256 253 249 249 249 254 253
270 269 269 268 269 269 265 262 264 261 261 259 254 250 249 246 244 248 247 248 242 245 246 241 240 241 240 242 242 242 243 249 249 250 249 252 248 252 262 258 254 261 265
263 265 267 269 270 269 265 264 263 262 257 256 257 257 254 253 246 248 252 253 252 249 247 247 250 249 247 246 248 247 248 251 256 256 257 258 261 262 263 265 265 267 269
262 261 260 264 268 269 269 269 268 264 262 260 257 255 254 254 254 254 256 255 256 254 253 254 254 251 252 256 255 254 253 253 255 256 260 259 259 264 268 269 269 270 272
264 262 261 264 263 266 267 268 267 268 267 264 261 259 254 252 253 254 256 256 255 256 255 255 255 257 256 255 255 257 259 259 259 258 260 262 263 262 264 266 269 270 272
Height
10750 10741 10736 10729 10723 10718 10713 10711 10709 10707 10710 10713 10716 10723 10729 10735 10745 10754 10760 10768 10773 10781 10788 10794 10797 10802 10806 10809 10812 10815 10818 10820 10822 10825 10828 10831 10833 10836 10839 10843 10848 10850 10854
10737 10730 10726 10719 10712 10706 10703 10699 10697 10698 10700 10704 10709 10716 10722 10731 10742 10751 10757 10764 10772 10777 10784 10789 10793 10797 10800 10804 10806 10810 10814 10817 10819 10821 10824 10827 10829 10832 10836 10839 10842 10846 10848
10721 10717 10714 10710 10703 10697 10690 10685 10682 10685 10691 10698 10706 10712 10720 10730 10740 10748 10752 10760 10769 10774 10779 10784 10788 10791 10794 10798 10802 10806 10810 10813 10816 10817 10820 10823 10825 10827 10830 10833 10837 10840 10843
10709 10707 10705 10701 10696 10688 10679 10673 10672 10676 10685 10694 10705 10712 10721 10730 10739 10746 10751 10757 10764 10769 10773 10777 10784 10786 10789 10793 10798 10801 10806 10809 10811 10813 10816 10820 10822 10824 10826 10829 10832 10835 10837
10700 10699 10697 10694 10690 10684 10676 10670 10671 10676 10686 10695 10705 10712 10721 10730 10736 10742 10748 10755 10760 10764 10768 10774 10778 10782 10786 10791 10795 10798 10801 10804 10807 10810 10813 10815 10818 10820 10822 10825 10827 10830 10832
10690 10691 10689 10688 10685 10682 10678 10675 10673 10678 10686 10696 10707 10715 10723 10727 10735 10741 10747 10752 10756 10760 10764 10769 10774 10778 10782 10787 10791 10794 10797 10800 10803 10806 10808 10811 10814 10815 10818 10820 10823 10825 10827
10681 10683 10682 10683 10681 10681 10679 10677 10678 10682 10690 10697 10705 10715 10719 10730 10734 10740 10745 10749 10752 10755 10759 10763 10768 10773 10777 10782 10785 10789 10792 10796 10798 10799 10804 10806 10808 10811 10813 10816 10818 10821 10823
10674 10676 10676 10678 10677 10679 10679 10678 10680 10682 10690 10695 10705 10719 10723 10733 10731 10737 10742 10744 10748 10749 10755 10758 10764 10769 10772 10777 10781 10783 10786 10790 10793 10796 10798 10800 10803 10806 10808 10811 10813 10815 10817
10668 10669 10670 10672 10673 10675 10677 10678 10681 10681 10686 10693 10697 10714 10718 10723 10728 10733 10733 10737 10740 10743 10748 10753 10759 10764 10768 10772 10775 10778 10780 10784 10789 10791 10794 10796 10798 10801 10803 10805 10807 10809 10811
10661 10663 10664 10667 10669 10670 10675 10676 10680 10680 10682 10687 10693 10701 10708 10714 10720 10726 10729 10732 10735 10739 10742 10748 10753 10758 10762 10765 10769 10773 10774 10780 10783 10784 10787 10790 10792 10795 10798 10800 10802 10803 10804
10656 10658 10659 10661 10663 10666 10671 10674 10676 10679 10682 10687 10689 10694 10700 10707 10713 10717 10721 10724 10727 10733 10737 10743 10748 10753 10756 10759 10764 10766 10768 10773 10776 10778 10781 10782 10786 10790 10792 10793 10795 10796 10797
10652 10652 10655 10657 10659 10660 10665 10670 10672 10675 10680 10684 10686 10688 10692 10696 10702 10710 10715 10720 10724 10729 10733 10736 10741 10746 10749 10754 10757 10759 10762 10765 10768 10771 10773 10777 10780 10782 10784 10785 10787 10788 10790
10649 10649 10649 10652 10655 10656 10660 10665 10668 10672 10674 10678 10680 10683 10686 10692 10699 10703 10709 10712 10718 10722 10726 10730 10734 10739 10743 10747 10751 10752 10755 10758 10761 10764 10766 10769 10772 10775 10776 10777 10778 10780 10782
10648 10647 10648 10648 10650 10654 10658 10660 10663 10667 10670 10672 10675 10679 10683 10687 10693 10698 10702 10707 10712 10716 10720 10723 10727 10731 10735 10740 10744 10744 10748 10751 10754 10756 10758 10762 10764 10767 10767 10768 10770 10771 10773
10646 10645 10644 10644 10646 10649 10653 10657 10658 10662 10664 10667 10670 10672 10677 10682 10686 10691 10695 10699 10704 10708 10711 10715 10720 10723 10727 10732 10736 10736 10741 10744 10746 10747 10750 10754 10756 10758 10759 10759 10761 10762 10762
10644 10642 10641 10640 10642 10644 10647 10651 10655 10658 10661 10660 10663 10668 10672 10678 10681 10686 10689 10692 10696 10700 10703 10708 10712 10714 10718 10723 10728 10728 10731 10735 10736 10739 10741 10744 10746 10749 10750 10751 10752 10753 10754
10639 10639 10638 10636 10636 10637 10640 10645 10649 10652 10655 10657 10659 10662 10665 10669 10674 10678 10681 10684 10688 10691 10694 10698 10702 10706 10709 10714 10719 10720 10720 10724 10726 10728 10730 10732 10735 10737 10739 10741 10742 10743 10744
10631 10633 10633 10633 10631 10632 10633 10638 10640 10645 10649 10651 10654 10657 10659 10662 10665 10669 10673 10675 10680 10682 10686 10690 10694 10696 10699 10703 10708 10710 10710 10714 10717 10717 10719 10720 10723 10725 10727 10729 10730 10732 10733
10624 10623 10625 10627 10627 10626 10627 10629 10632 10635 10638 10642 10646 10650 10652 10655 10657 10659 10662 10665 10669 10673 10676 10680 10684 10687 10690 10694 10696 10699 10701 10702 10705 10706 10708 10709 10712 10713 10715 10716 10718 10718 10719
10613 10614 10615 10616 10619 10620 10619 10620 10622 10624 10627 10631 10636 10640 10642 10644 10647 10650 10651 10656 10657 10661 10665 10669 10671 10673 10677 10681 10684 10687 10690 10691 10690 10693 10695 10696 10698 10700 10700 10700 10703 10705 10707
10600 10601 10603 10606 10607 10610 10611 10610 10611 10615 10617 10621 10624 10626 10630 10632 10635 10640 10643 10646 10649 10651 10651 10654 10658 10661 10663 10667 10670 10672 10675 10678 10678 10678 10680 10682 10684 10685 10687 10687 10689 10691 10692
10584 10587 10589 10592 10595 10597 10599 10602 10603 10602 10601 10605 10609 10613 10616 10619 10623 10628 10632 10635 10637 10639 10641 10644 10645 10648 10651 10653 10656 10658 10660 10662 10663 10665 10666 10668 10669 10671 10671 10674 10674 10676 10677
10568 10571 10574 10576 10579 10582 10585 10589 10590 10592 10592 10591 10593 10597 10602 10604 10608 10610 10614 10617 10621 10624 10627 10630 10632 10636 10637 10639 10640 10642 10644 10646 10648 10650 10651 10652 10654 10655 10653 10657 10660 10660 10660
10551 10555 10557 10557 10560 10564 10569 10571 10574 10576 10579 10580 10581 10582 10585 10586 10590 10593 10596 10599 10603 10607 10609 10612 10616 10619 10621 10622 10624 10625 10627 10628 10629 10631 10633 10634 10635 10637 10638 10639 10641 10641 10642
10530 10535 10540 10541 10542 10545 10548 10551 10553 10557 10560 10562 10565 10567 10568 10569 10571 10574 10576 10579 10582 10586 10590 10593 10596 10599 10601 10603 10605 10606 10608 10609 10612 10613 10615 10617 10618 10617 10618 10620 10621 10622 10622
10509 10513 10519 10522 10524 10526 10528 10533 10533 10533 10538 10542 10546 10549 10551 10553 10554 10555 10557 10560 10562 10564 10568 10572 10576 10577 10579 10583 10584 10584 10585 10590 10591 10594 10595 10596 10598 10598 10599 10601 10602 10603 10602